This is the latest recevied weather packets stored in our database for station/object N8TWM-13. If no packets are shown the sender has not sent any weather packets the latest 10 day(s).
| Time | Temp. | Humidity | Pressure | Rain* | Wind** | Luminosity | Snow |
|---|---|---|---|---|---|---|---|
| 1777562179 | 6.67° C | 84% | 1015.1 hPa | 0 mm | - | 178 W/m² | - |
| 1777561877 | 7.22° C | 85% | 1015.3 hPa | 0 mm | - | 191 W/m² | - |
| 1777561573 | 6.67° C | 85% | 1015.3 hPa | 0 mm | - | 243 W/m² | - |
| 1777561269 | 6.11° C | 85% | 1015 hPa | 0 mm | - | 204 W/m² | - |
| 1777560963 | 6.11° C | 85% | 1015 hPa | 0 mm | - | 138 W/m² | - |
| 1777560659 | 6.11° C | 85% | 1015 hPa | 0 mm | - | 124 W/m² | - |
| 1777560357 | 6.67° C | 85% | 1014.9 hPa | 0 mm | - | 74 W/m² | - |
| 1777560055 | 6.67° C | 85% | 1014.8 hPa | 0 mm | - | 104 W/m² | - |
| 1777559750 | 6.67° C | 85% | 1014.6 hPa | 0 mm | - | 123 W/m² | - |
| 1777559447 | 6.67° C | 85% | 1014.5 hPa | 0 mm | - | 111 W/m² | - |
| 1777559145 | 6.67° C | 85% | 1014.7 hPa | 0 mm | - | 108 W/m² | - |
| 1777558845 | 6.67° C | 85% | 1014.5 hPa | 0 mm | - | 124 W/m² | - |
| 1777558540 | 6.67° C | 86% | 1014.7 hPa | 0 mm | - | 184 W/m² | - |
| 1777558237 | 6.11° C | 86% | 1014.5 hPa | 0 mm | - | 173 W/m² | - |
| 1777557933 | 6.11° C | 86% | 1014.3 hPa | 0 mm | - | 122 W/m² | - |
| 1777557630 | 6.11° C | 87% | 1014.1 hPa | 0 mm | - | 138 W/m² | - |
| 1777557326 | 6.11° C | 86% | 1014.1 hPa | 0 mm | - | 79 W/m² | - |
| 1777557023 | 6.11° C | 86% | 1014.3 hPa | 0 mm | - | 75 W/m² | - |
| 1777556718 | 6.11° C | 87% | 1014.5 hPa | 0 mm | - | 92 W/m² | - |
| 1777556415 | 6.11° C | 87% | 1014.2 hPa | 0 mm | - | 91 W/m² | - |
| 1777556115 | 6.11° C | 87% | 1014.1 hPa | 0 mm | - | 117 W/m² | - |
| 1777555811 | 6.11° C | 87% | 1014.3 hPa | 0 mm | - | 138 W/m² | - |
| 1777555506 | 5.56° C | 88% | 1014.2 hPa | 0 mm | - | 119 W/m² | - |
| 1777555202 | 6.11° C | 88% | 1014.1 hPa | 0 mm | - | 73 W/m² | - |
| 1777554900 | 6.11° C | 88% | 1014 hPa | 0 mm | - | 113 W/m² | - |
* Rain latest hour (hover to see other rain measurements)
** Current wind speed in m/s (hover to see current wind gust speed)